User: anonymous   Login
Location: Fort Worth, Tx
(32.7431°N, 97.3695°W)
Time: 01:23:22
(UTC-04:00)
Language:

CAS-4A - Orbit

View from above orbital plane
View from above orbital plane
View from above satellite
View from above satellite

Ground track
Ground track

The orbit data is extracted from the following two-line orbital elements,

1 42761U 17034D   23081.75141973  .00011601  00000-0  60814-3 0  9997
2 42761  43.0166 234.1652 0012348 267.7346 184.8603 15.15706683318529
Epoch (UTC): 22 March 2023 18:02:02
Eccentricity: 0.0012348
inclination: 43.0166°
perigee height: 510 km
apogee height: 527 km
right ascension of ascending node: 234.1652°
argument of perigee: 267.7346°
revolutions per day: 15.15706683
mean anomaly at epoch: 184.8603°
orbit number at epoch: 31852

The dashed part of the orbit path shows where the satellite is in the earth's shadow,  

DLR